Location: Recife
(8.0585°S, 34.8848°W)
Time: 11:30:09
(UTC-03:00)

Vanguard 2 - Pass Details

Date: 19 April 2026
Orbit: 554 x 2894 km, 32.9° (Epoch: 7 May)

Event Time Altitude Azimuth Distance (km) Brightness Sun altitude
Rises 06:51:03 0° 253° (WSW) 5,544 11.3 20.7°
Reaches altitude 10° 06:56:00 10° 264° (W) 4,098 10.7 21.9°
Maximum altitude 07:03:57 26° 315° (NW) 2,314 9.9 23.8°
Drops below altitude 10° 07:09:26 10° 10° (N) 2,726 10.8 25.1°
Sets 07:12:02 0° 24° (NNE) 3,409 11.4 25.7°
